User: anonymous   Login
Location: Azul
(36.7830°S, 59.8500°W)
Time: 02:01:47
(UTC-03:00)
Language:

ITUPSAT 1 - Orbit

View from above orbital plane
View from above orbital plane
View from above satellite
View from above satellite

Ground track
Ground track

The orbit data is extracted from the following two-line orbital elements,

1 35935U 09051E   21295.55003364  .00000165  00000-0  48935-4 0  9990
2 35935  98.5971 141.3975 0009194  74.1163 286.1047 14.55775100641263
Epoch (UTC): 22 October 2021 13:12:02
Eccentricity: 0.0009194
inclination: 98.5971°
perigee height: 700 km
apogee height: 713 km
right ascension of ascending node: 141.3975°
argument of perigee: 74.1163°
revolutions per day: 14.55775100
mean anomaly at epoch: 286.1047°
orbit number at epoch: 64126

The dashed part of the orbit path shows where the satellite is in the earth's shadow,  

DLR